Torna al catalogo

NIMBUS 2 DEB

AttivoLEO
NORAD 40642·DEBRIS·🇺🇸 United States

Lanciato May 15, 1966 da Vandenberg Space Force Base

Loading…

Prossimi Passaggi (prossime 24 ore)

TLE

AggiornatoSource: Space-Track

Epoca: Sep 12, 2026, 17:13 UTC

1 40642U 66040BF  26255.71746893  .00003375  00000-0  44693-2 0  9993
2 40642 100.3137 174.4821 0035235 198.9748 161.0080 13.61364324557336

Traccia NIMBUS 2 DEB in tempo reale con AllMySat

Download on the App Store